Tracking 25701 objects as of 3-Jul-2022
HD Live streaming from Space Station
objects crossing your sky now

FENGYUN 1C DEB

Track FENGYUN 1C DEB now!
10-day predictions


NORAD ID: 29874
Int'l Code: 1999-025FU
Perigee: 771.0 km
Apogee: 974.5 km
Inclination: 98.4 °
Period: 102.3 minutes
Semi major axis: 7243 km
RCS: 0.0288 m2 (small)
Launch date: May 10, 1999
Source: People's Republic of China (PRC)
Launch site: Taiyaun Space Center, China (TSC)

Note: This is SATELLITE DEBRIS
aabbcc
Your satellite tracking list
Your tracking list is empty




NASA's NSSDC Master Catalog

Two Line Element Set (TLE):
1 29874U 99025FU  22183.85871976  .00001478  00000-0  81231-3 0  9990
2 29874  98.3828 135.1432 0140449  34.0974  26.4705 14.08181925790197
Source of the keplerian elements: AFSPC